FW8513 Weather Reports


Display with metric or nautical units.
time (UTC)temp
F
wind
direction
speed
MPH
gust
MPH
rain 1hr
in
rain 24hr
in
rain mn
in
humidity
%
barometer
mb
20260510181601 71 223 10.0 16.0 0.00 0.00 0.00 27 1015.1
20260510180041 71 161 6.0 14.0 0.00 0.00 0.00 29 1015.2
20260510174551 70 208 7.0 17.0 0.00 0.00 0.00 28 1015.4
20260510173038 70 221 7.0 15.0 0.00 0.00 0.00 30 1015.4
20260510171536 69 184 10.0 19.0 0.00 0.00 0.00 31 1015.6
20260510170035 68 198 9.0 17.0 0.00 0.00 0.00 32 1015.8
20260510164545 67 200 9.0 16.0 0.00 0.00 0.00 35 1016.0
20260510163043 65 148 6.0 14.0 0.00 0.00 0.00 40 1016.0
20260510161541 64 189 9.0 13.0 0.00 0.00 0.00 41 1016.0
20260510160042 63 192 8.0 15.0 0.00 0.00 0.00 42 1016.4
20260510154535 62 195 7.0 17.0 0.00 0.00 0.00 47 1016.4
20260510153035 59 186 6.0 11.0 0.00 0.00 0.00 53 1016.5
20260510151547 57 187 6.0 12.0 0.00 0.00 0.00 55 1016.4
20260510150045 55 185 6.0 10.0 0.00 0.00 0.00 57 1016.6
20260510144551 54 180 7.0 12.0 0.00 0.00 0.00 60 1016.7
20260510143047 52 163 7.0 11.0 0.00 0.00 0.00 62 1016.6
20260510141543 51 178 6.0 11.0 0.00 0.00 0.00 63 1017.1
20260510140043 49 166 6.0 12.0 0.00 0.00 0.00 67 1017.1
20260510134545 47 171 6.0 11.0 0.00 0.00 0.00 70 1017.3
20260510133037 46 157 5.0 8.0 0.00 0.00 0.00 73 1017.2
20260510131535 44 157 5.0 8.0 0.00 0.00 0.00 74 1017.3
20260510130045 44 159 5.0 8.0 0.00 0.00 0.00 75 1017.3
20260510124545 43 154 6.0 8.0 0.00 0.00 0.00 75 1017.3
20260510123042 43 157 6.0 8.0 0.00 0.00 0.00 76 1017.3
20260510121536 42 151 6.0 9.0 0.00 0.00 0.00 76 1017.4
20260510120037 42 155 5.0 9.0 0.00 0.00 0.00 75 1017.5
20260510114540 42 157 7.0 9.0 0.00 0.00 0.00 75 1017.5
20260510113044 42 155 5.0 8.0 0.00 0.00 0.00 75 1017.5
20260510111536 42 175 3.0 6.0 0.00 0.00 0.00 76 1017.6
20260510110038 42 171 5.0 9.0 0.00 0.00 0.00 75 1017.8
20260510104539 42 184 4.0 6.0 0.00 0.00 0.00 74 1017.8
20260510103043 43 184 3.0 6.0 0.00 0.00 0.00 72 1018.0
20260510101537 44 170 4.0 7.0 0.00 0.00 0.00 71 1018.0
20260510100107 44 163 5.0 9.0 0.00 0.00 0.00 71 1018.0
20260510094538 45 159 6.0 9.0 0.00 0.00 0.00 70 1018.0
20260510093045 45 170 3.0 6.0 0.00 0.00 0.00 69 1018.0
20260510091544 46 165 4.0 8.0 0.00 0.00 0.00 68 1018.1
20260510090037 47 157 5.0 8.0 0.00 0.00 0.00 68 1017.9
20260510084536 47 154 6.0 9.0 0.00 0.00 0.00 68 1018.1
20260510083044 47 159 6.0 9.0 0.00 0.00 0.00 67 1018.0
20260510081539 48 180 3.0 9.0 0.00 0.00 0.00 66 1018.2
20260510080037 49 169 4.0 9.0 0.00 0.00 0.00 65 1018.2
20260510074538 49 148 5.0 10.0 0.00 0.00 0.00 65 1018.2
20260510073042 49 146 6.0 10.0 0.00 0.00 0.00 65 1018.2
20260510071551 49 140 6.0 9.0 0.00 0.00 0.00 64 1018.2
20260510070037 50 136 7.0 10.0 0.00 0.00 0.00 64 1018.2
20260510064544 50 150 6.0 10.0 0.00 0.00 0.00 63 1018.3
20260510063036 50 148 5.0 7.0 0.00 0.00 0.00 62 1018.3
20260510061548 50 165 4.0 7.0 0.00 0.00 0.00 60 1018.3
20260510060037 51 165 3.0 7.0 0.00 0.00 0.00 59 1018.2
20260510054537 50 178 3.0 6.0 0.00 0.00 0.00 58 1018.2
20260510053035 51 202 4.0 6.0 0.00 0.00 0.00 53 1018.3
20260510051543 54 318 2.0 5.0 0.00 0.00 0.00 50 1018.1
20260510050041 55 0 0.0 2.0 0.00 0.00 0.00 50 1018.1
20260510044537 55 334 1.0 3.0 0.00 0.00 0.00 49 1018.2
20260510043036 56 334 1.0 3.0 0.00 0.00 0.00 48 1018.4
20260510041535 57 333 1.0 3.0 0.00 0.00 0.00 47 1018.2
20260510040042 57 0 0.0 3.0 0.00 0.00 0.00 46 1018.2
20260510034541 58 333 0.0 3.0 0.00 0.00 0.00 44 1017.9
20260510033043 59 332 1.0 3.0 0.00 0.00 0.00 44 1017.8
20260510031549 60 332 2.0 4.0 0.00 0.00 0.00 43 1017.7
20260510030036 60 333 2.0 5.0 0.00 0.00 0.00 42 1017.6
20260510024545 62 333 2.0 9.0 0.00 0.00 0.00 41 1017.5
20260510023035 63 325 1.0 4.0 0.00 0.00 0.00 40 1017.4
20260510021536 63 325 3.0 6.0 0.00 0.00 0.00 39 1017.2
20260510020035 64 318 4.0 6.0 0.00 0.00 0.00 38 1017.3
20260510014543 66 303 7.0 13.0 0.00 0.00 0.00 36 1017.1
20260510013038 66 309 5.0 12.0 0.00 0.00 0.00 36 1017.1
20260510011547 66 327 8.0 13.0 0.00 0.00 0.00 35 1017.1
20260510010036 66 288 7.0 13.0 0.00 0.00 0.00 36 1017.1
20260510004535 65 321 8.0 10.0 0.00 0.00 0.00 37 1017.2
20260510003059 66 315 9.0 15.0 0.00 0.00 0.00 36 1017.2
20260510001540 66 307 8.0 12.0 0.00 0.00 0.00 38 1017.2
20260510000040 66 309 12.0 16.0 0.00 0.00 0.00 37 1017.1
20260509234543 66 290 6.0 14.0 0.00 0.00 0.00 38 1017.2
20260509233042 65 275 7.0 10.0 0.00 0.00 0.00 38 1017.2
20260509231547 65 238 7.0 14.0 0.00 0.00 0.00 38 1017.1
20260509230053 65 307 4.0 13.0 0.00 0.00 0.00 38 1017.3
20260509224543 65 285 10.0 14.0 0.00 0.00 0.00 38 1017.3
20260509223036 65 302 8.0 13.0 0.00 0.00 0.00 39 1017.3
20260509221543 64 293 2.0 11.0 0.00 0.00 0.00 40 1017.4
20260509220043 64 284 6.0 12.0 0.00 0.00 0.00 40 1017.5
20260509214542 64 287 8.0 12.0 0.00 0.00 0.00 40 1017.6
20260509213055 65 0 5.0 17.0 0.00 0.00 0.00 39 1017.6
20260509211540 64 202 3.0 14.0 0.00 0.00 0.00 41 1017.8
20260509210050 63 267 4.0 11.0 0.00 0.00 0.00 42 1017.8
20260509204543 63 244 4.0 10.0 0.00 0.00 0.00 42 1017.9
20260509203041 64 218 7.0 12.0 0.00 0.00 0.00 41 1017.9
20260509201540 65 265 4.0 12.0 0.00 0.00 0.00 40 1017.9
20260509200036 64 171 7.0 12.0 0.00 0.00 0.00 43 1018.0
20260509194537 64 143 4.0 15.0 0.00 0.00 0.00 42 1017.9
20260509193043 65 198 4.0 16.0 0.00 0.00 0.00 43 1018.0
20260509191542 62 0 5.0 12.0 0.00 0.00 0.00 45 1018.0
20260509190042 60 143 5.0 10.0 0.00 0.00 0.00 47 1018.0
20260509184537 59 140 4.0 10.0 0.00 0.00 0.00 48 1018.1
20260509183042 59 147 4.0 10.0 0.00 0.00 0.00 50 1018.1